Home > Weather > Bodø > Past weeks

Flag for Norway Past Weather in Bodø, Norway — Yesterday and Last 2 Weeks

Now
61 °F

Sunny.


Feels Like: 61 °F
Forecast: 57 / 60 °F
Wind: 16 mph from East

Location: Bodo Vi

Current Time: Jul 28, 2016 at 10:45:20 AM

Latest Report: Jul 28, 2016 at 9:50 AM


Visibility: 10 mi

Pressure: 29.74 "Hg

Humidity: 77%

Dew Point: 54 °F

Location of BodøLocation

Past Weather in Bodø — Graph

°F

Bodø Temperature Yesterday

Maximum temperature yesterday: 61 °F (at 3:50 PM)
Minimum temperature yesterday: 54 °F (at 11:50 PM)
Average temperature yesterday: 57 °F

High & Low Weather Summary for the Past Weeks

 TemperatureHumidityPressure
High79 °F (Jul 22, 12:20 PM)100% (Jul 13, 9:20 AM)30.15 "Hg (Jul 13, 9:20 AM)
Low50 °F (Jul 16, 4:50 AM)34% (Jul 22, 3:50 PM)29.56 "Hg (Jul 17, 7:20 AM)
Average58 °F84%29.94 "Hg
* Reported Jul 13 9:20 AM — Jul 28 9:20 AM, Bodø, Weather by CustomWeather, © 2016

Note: Actual official high and low records may vary slightly from our data, if they occured in-between our weather recording intervals... More about our weather records

Advertising

Bodø Weather History for the Previous 24 Hours

Scroll right to see more
 ConditionsComfort  
Time TempWeatherWind HumidityBarometerVisibility
9:20 AM
Thu, Jul 28
61 °FSunny.14 mph77%29.74 "Hg10 mi
8:50 AM61 °FSunny.16 mph77%29.74 "Hg10 mi
8:20 AM59 °FSunny.16 mph77%29.74 "Hg10 mi
7:50 AM57 °FSunny.16 mph82%29.77 "Hg10 mi
7:20 AM57 °FScattered clouds.18 mph82%29.77 "HgN/A
6:50 AM55 °FScattered clouds.17 mph88%29.77 "HgN/A
6:20 AM55 °FScattered clouds.15 mph88%29.77 "HgN/A
5:50 AM55 °FScattered clouds.16 mph88%29.80 "HgN/A
5:20 AM55 °FScattered clouds.14 mph88%29.80 "HgN/A
4:50 AM55 °FScattered clouds.13 mph94%29.80 "HgN/A
3:50 AM54 °FPassing clouds.12 mph100%29.83 "HgN/A
2:50 AM54 °FPassing clouds.9 mph100%29.83 "HgN/A
1:50 AM54 °FPassing clouds.8 mph94%29.83 "HgN/A
12:50 AM54 °FPassing clouds.5 mph94%29.86 "HgN/A
11:50 PM
Wed, Jul 27
54 °FScattered clouds.7 mph94%29.86 "HgN/A
11:20 PM55 °FPassing clouds.6 mph94%29.86 "HgN/A
10:50 PM55 °FPassing clouds.3 mph94%29.89 "HgN/A
10:20 PM55 °FPassing clouds.1 mph94%29.89 "HgN/A
9:50 PM57 °FScattered clouds.No wind94%29.89 "HgN/A
9:20 PM57 °FScattered clouds.5 mph94%29.89 "HgN/A
8:50 PM59 °FBroken clouds.6 mph88%29.89 "HgN/A
8:20 PM59 °FBroken clouds.8 mph88%29.89 "HgN/A
7:50 PM59 °FBroken clouds.9 mph88%29.89 "HgN/A
7:20 PM59 °FBroken clouds.8 mph88%29.89 "HgN/A
6:50 PM61 °FBroken clouds.10 mph83%29.89 "HgN/A
6:20 PM59 °FBroken clouds.10 mph88%29.89 "HgN/A
5:50 PM61 °FBroken clouds.8 mph83%29.89 "HgN/A
5:20 PM61 °FBroken clouds.8 mph83%29.89 "HgN/A
4:50 PM61 °FBroken clouds.13 mph83%29.89 "HgN/A
4:20 PM59 °FBroken clouds.13 mph88%29.89 "HgN/A
3:50 PM61 °FBroken clouds.13 mph88%29.89 "HgN/A
3:20 PM59 °FBroken clouds.8 mph88%29.89 "HgN/A
2:50 PM59 °FBroken clouds.6 mph88%29.89 "HgN/A
2:20 PM59 °FBroken clouds.6 mph94%29.89 "HgN/A
1:50 PM59 °FBroken clouds.8 mph94%29.89 "HgN/A
1:20 PM57 °FBroken clouds.10 mph100%29.89 "HgN/A
12:50 PM57 °FLight rain. Broken clouds.7 mph94%29.89 "HgN/A
12:20 PM57 °FLight rain. Broken clouds.9 mph100%29.86 "HgN/A
11:50 AM55 °FLight rain. Broken clouds.10 mph100%29.86 "HgN/A
11:20 AM55 °FLight rain. Broken clouds.12 mph100%29.86 "HgN/A
10:50 AM55 °FLight rain. Broken clouds.12 mph100%29.86 "HgN/A
10:20 AM55 °FLight rain. Broken clouds.12 mph100%29.86 "HgN/A
Weather by CustomWeather, © 2016

See weather overviewHow to use our weather pages